Windsor, CA

11:28 AM PST on December 05, 2016 (GMT -0800)
Sonoma County

Weather History for KSTS - March, 2011

Change the Weather History Date:

Tuesday, March 29, 2011

  Actual Average Record
Temperature  
Mean Temperature 58 °F 54 °F  
Max Temperature 73 °F 66 °F 81 °F (2015)
Min Temperature 42 °F 42 °F 34 °F (1999)
Degree Days  
Heating Degree Days 7    
Month to date heating degree days 404  
Since 1 July heating degree days 2470  
Cooling Degree Days 0    
Month to date cooling degree days 0  
Year to date cooling degree days 0  
Growing Degree Days 7 (Base 50)    
Moisture  
Dew Point 45 °F    
Average Humidity 68    
Maximum Humidity 100    
Minimum Humidity 35    
Precipitation  
Precipitation 0.00 in 0.14 in 1.14 in (2006)
Month to date precipitation 10.36 4.70  
Year to date precipitation 18.09 18.15  
Since 1 July precipitation 36.96  
Sea Level Pressure  
Sea Level Pressure 30.19 in    
Wind  
Wind Speed 5 mph (WNW)    
Max Wind Speed 16 mph    
Max Gust Speed 23 mph    
Visibility 10 miles    
Events      
T = Trace of Precipitation, MM = Missing Value Source: NWS Daily Summary

Daily Weather History Graph

Daily Weather History Graph

Search for Another Location

Airport or City:

Trip Planner

Search our weather history database for the weather conditions in past years. The results will help you decide how hot, cold, wet, or windy it might be!

Date:

Astronomy

Mar. 29, 2011 Rise Set
Actual Time 7:01 AM PDT 7:31 PM PDT
Civil Twilight 6:34 AM PDT 7:58 PM PDT
Nautical Twilight 6:03 AM PDT 8:29 PM PDT
Astronomical Twilight 5:31 AM PDT 9:01 PM PDT
Moon 4:25 AM PDT (3/29) 3:20 PM PDT (3/29)
Length of Visible Light 13h 23m
Length of Day
12h 30m
Waning Crescent, 20% of the Moon is Illuminated
Mar 29
Waning Crescent
Apr 3
New
Apr 11
First Quarter
Apr 17
Full
Apr 24
Last Quarter

Hourly Weather History & Observations

Time (PDT) Temp. Dew Point Humidity Pressure Visibility Wind Dir Wind Speed Gust Speed Precip Events Conditions
12:53 AM 48.0 °F 41.0 °F 77% 30.15 in 10.0 mi North 4.6 mph - N/A   Clear
1:53 AM 46.9 °F 42.1 °F 83% 30.14 in 10.0 mi Calm Calm - N/A   Clear
2:53 AM 45.0 °F 43.0 °F 93% 30.14 in 10.0 mi Calm Calm - N/A   Clear
3:53 AM 44.1 °F 42.1 °F 93% 30.15 in 10.0 mi Calm Calm - N/A   Clear
4:53 AM 43.0 °F 41.0 °F 93% 30.16 in 7.0 mi Calm Calm - N/A   Clear
5:53 AM 42.1 °F 41.0 °F 96% 30.16 in 10.0 mi Calm Calm - N/A   Clear
6:53 AM 43.0 °F 42.1 °F 97% 30.19 in 10.0 mi Calm Calm - N/A   Overcast
7:53 AM 45.0 °F 43.0 °F 93% 30.19 in 10.0 mi Calm Calm - N/A   Scattered Clouds
8:53 AM 48.0 °F 44.1 °F 86% 30.21 in 10.0 mi Calm Calm - N/A   Scattered Clouds
9:53 AM 53.1 °F 44.1 °F 71% 30.21 in 10.0 mi Calm Calm - N/A   Scattered Clouds
10:53 AM 57.0 °F 45.0 °F 64% 30.23 in 10.0 mi SSW 4.6 mph - N/A   Scattered Clouds
11:53 AM 63.0 °F 46.9 °F 56% 30.22 in 10.0 mi West 4.6 mph - N/A   Mostly Cloudy
12:53 PM 68.0 °F 44.1 °F 42% 30.19 in 10.0 mi NW 10.4 mph 16.1 mph N/A   Mostly Cloudy
1:53 PM 71.1 °F 45.0 °F 39% 30.20 in 10.0 mi North 12.7 mph - N/A   Mostly Cloudy
2:53 PM 72.0 °F 43.0 °F 35% 30.17 in 10.0 mi NW 11.5 mph - N/A   Mostly Cloudy
3:53 PM 72.0 °F 44.1 °F 37% 30.16 in 10.0 mi WNW 16.1 mph 20.7 mph N/A   Overcast
4:53 PM 72.0 °F 44.1 °F 37% 30.17 in 10.0 mi NNW 11.5 mph 20.7 mph N/A   Mostly Cloudy
5:53 PM 69.1 °F 46.0 °F 44% 30.17 in 10.0 mi WNW 8.1 mph - N/A   Overcast
6:53 PM 64.9 °F 52.0 °F 63% 30.18 in 10.0 mi West 6.9 mph - N/A   Mostly Cloudy
7:53 PM 61.0 °F 51.1 °F 70% 30.20 in 10.0 mi WNW 8.1 mph - N/A   Mostly Cloudy
8:53 PM 57.9 °F 50.0 °F 75% 30.21 in 10.0 mi West 6.9 mph - N/A   Clear
9:53 PM 57.9 °F 48.0 °F 70% 30.22 in 10.0 mi WNW 8.1 mph - N/A   Clear
10:53 PM 57.9 °F 48.0 °F 70% 30.22 in 10.0 mi East 3.5 mph - N/A   Clear
11:53 PM 55.9 °F 48.0 °F 75% 30.23 in 10.0 mi Calm Calm - N/A   Clear